Location: Croissy-Beaubourg
(48.8283°N, 2.6696°E)
Time: 00:08:32
(UTC+00:00)

USA 215 - Pass Details

Date: 01 June 2022
Orbit: 1099 x 1108 km, 123.0° (Epoch: 10 June)

Event Time Altitude Azimuth Distance (km) Brightness Sun altitude
Rises 01:10:43 0° 58° (ENE) 3,924 7.0 -16.7°
Reaches altitude 10° 01:13:13 10° 55° (NE) 2,966 6.4 -16.6°
Maximum altitude 01:19:40 64° 336° (NNW) 1,213 3.6 -16.2°
Drops below altitude 10° 01:26:07 10° 257° (WSW) 2,964 5.2 -15.8°
Enters shadow 01:27:32 - 255° (WSW) 3,505 5.5 -15.7°
